TimeEST,TemperatureF,Dew PointF,Humidity,Sea Level PressureIn,VisibilityMPH,Wind Direction,Wind SpeedMPH,Gust SpeedMPH,PrecipitationIn,Events,Conditions,WindDirDegrees,DateUTC
12:54 AM,9.0,-0.9,64,29.98,10.0,West,9.2,-,N/A,,Clear,260,2013-01-22 05:54:00
1:54 AM,8.1,-0.0,70,29.99,10.0,West,12.7,20.7,N/A,,Scattered Clouds,260,2013-01-22 06:54:00
2:02 AM,8.6,-0.4,67,29.91,10.0,West,12.7,18.4,N/A,,Mostly Cloudy,260,2013-01-22 07:02:00
2:54 AM,8.1,-0.9,67,30.01,10.0,West,15.0,24.2,N/A,,Mostly Cloudy,260,2013-01-22 07:54:00
3:31 AM,8.6,-2.2,62,29.94,10.0,West,11.5,29.9,N/A,,Scattered Clouds,260,2013-01-22 08:31:00
3:54 AM,7.0,-4.0,61,30.03,10.0,West,9.2,23.0,N/A,,Partly Cloudy,270,2013-01-22 08:54:00
4:54 AM,6.1,-4.0,63,30.05,10.0,WSW,8.1,23.0,N/A,,Mostly Cloudy,250,2013-01-22 09:54:00
5:01 AM,6.8,-4.0,61,29.96,10.0,WSW,8.1,-,N/A,,Overcast,250,2013-01-22 10:01:00
5:54 AM,5.0,-5.1,63,30.08,10.0,West,8.1,16.1,N/A,,Mostly Cloudy,260,2013-01-22 10:54:00
6:54 AM,5.0,-4.0,66,30.10,10.0,West,9.2,17.3,N/A,,Overcast,260,2013-01-22 11:54:00
7:54 AM,3.9,-4.0,70,30.12,10.0,WSW,12.7,18.4,N/A,,Overcast,240,2013-01-22 12:54:00
8:17 AM,3.2,-5.8,66,30.04,10.0,WSW,8.1,18.4,N/A,,Scattered Clouds,240,2013-01-22 13:17:00
8:31 AM,3.2,-4.0,72,30.04,10.0,WSW,12.7,20.7,N/A,,Partly Cloudy,240,2013-01-22 13:31:00
8:54 AM,5.0,-4.0,66,30.15,10.0,WSW,11.5,17.3,N/A,,Partly Cloudy,250,2013-01-22 13:54:00
9:26 AM,6.8,-4.0,61,30.06,10.0,WSW,16.1,24.2,N/A,,Mostly Cloudy,250,2013-01-22 14:26:00
9:54 AM,7.0,-4.0,61,30.17,10.0,West,11.5,-,N/A,,Mostly Cloudy,260,2013-01-22 14:54:00
10:02 AM,6.8,-4.0,61,30.07,10.0,WSW,15.0,21.9,N/A,,Overcast,240,2013-01-22 15:02:00
10:10 AM,6.8,-4.0,61,30.07,10.0,WSW,12.7,21.9,N/A,,Overcast,250,2013-01-22 15:10:00
10:54 AM,7.0,-4.0,61,30.18,9.0,West,16.1,25.3,0.00,,Overcast,270,2013-01-22 15:54:00
11:17 AM,8.6,-5.8,52,30.08,7.0,West,16.1,27.6,0.00,Snow,Light Snow,270,2013-01-22 16:17:00
11:26 AM,8.6,-5.8,52,30.07,3.0,WSW,18.4,32.2,0.00,Snow,Light Snow,250,2013-01-22 16:26:00
11:41 AM,8.6,-5.8,52,30.06,8.0,West,12.7,24.2,0.00,,Overcast,270,2013-01-22 16:41:00
11:54 AM,8.1,-4.0,58,30.16,6.0,West,16.1,25.3,0.00,Snow,Light Snow,260,2013-01-22 16:54:00
12:33 PM,8.6,-2.2,62,30.06,1.5,West,15.0,24.2,0.00,Snow,Light Snow,270,2013-01-22 17:33:00
12:46 PM,8.6,-2.2,62,30.05,3.0,West,13.8,24.2,0.00,Snow,Light Snow,280,2013-01-22 17:46:00
12:54 PM,8.1,-2.9,61,30.15,9.0,West,17.3,24.2,0.00,,Mostly Cloudy,270,2013-01-22 17:54:00
1:04 PM,8.6,-2.2,62,30.05,2.5,West,15.0,23.0,0.00,Snow,Light Snow,270,2013-01-22 18:04:00
1:15 PM,8.6,-0.4,67,30.05,0.8,West,15.0,21.9,0.00,Snow,Light Snow,280,2013-01-22 18:15:00
1:31 PM,6.8,1.4,79,30.04,1.0,West,8.1,17.3,0.00,Snow,Light Snow,270,2013-01-22 18:31:00
1:39 PM,8.6,1.4,73,30.04,0.8,WNW,10.4,-,0.00,Snow,Light Snow,290,2013-01-22 18:39:00
1:54 PM,7.0,1.0,77,30.14,0.5,WNW,13.8,-,0.00,Snow,Snow,290,2013-01-22 18:54:00
2:19 PM,6.8,-0.4,72,30.05,0.5,West,15.0,28.8,0.00,Snow,Snow,270,2013-01-22 19:19:00
2:29 PM,6.8,-0.4,72,30.06,1.8,West,12.7,23.0,0.00,Snow,Light Snow,280,2013-01-22 19:29:00
2:54 PM,7.0,-0.9,70,30.17,2.0,WNW,16.1,23.0,0.00,Snow,Light Snow,290,2013-01-22 19:54:00
3:16 PM,6.8,-2.2,67,30.07,1.5,West,11.5,21.9,0.00,Snow,Light Snow,280,2013-01-22 20:16:00
3:22 PM,6.8,-2.2,67,30.08,3.0,West,11.5,19.6,0.00,Snow,Light Snow,270,2013-01-22 20:22:00
3:54 PM,7.0,-2.9,64,30.19,5.0,West,12.7,19.6,0.00,Snow,Light Snow,270,2013-01-22 20:54:00
4:28 PM,6.8,-5.8,56,30.09,10.0,WNW,10.4,21.9,0.00,,Mostly Cloudy,290,2013-01-22 21:28:00
4:54 PM,6.1,-5.1,60,30.21,10.0,West,11.5,18.4,0.00,,Overcast,280,2013-01-22 21:54:00
5:54 PM,5.0,-6.0,61,30.24,10.0,West,9.2,-,N/A,,Clear,280,2013-01-22 22:54:00
6:32 PM,3.2,-4.0,72,30.14,10.0,West,6.9,-,N/A,,Mostly Cloudy,280,2013-01-22 23:32:00
6:41 PM,3.2,-4.0,72,30.14,10.0,West,6.9,-,N/A,,Scattered Clouds,270,2013-01-22 23:41:00
6:54 PM,3.9,-4.0,70,30.25,10.0,West,5.8,-,N/A,,Partly Cloudy,280,2013-01-22 23:54:00
7:54 PM,3.0,-2.9,76,30.26,10.0,West,9.2,-,N/A,,Clear,260,2013-01-23 00:54:00
8:54 PM,3.0,-2.9,76,30.25,10.0,WSW,5.8,-,N/A,,Clear,240,2013-01-23 01:54:00
9:54 PM,3.0,-4.0,73,30.25,10.0,WSW,8.1,-,N/A,,Clear,250,2013-01-23 02:54:00
10:54 PM,3.0,-2.9,76,30.25,10.0,WSW,6.9,-,N/A,,Clear,250,2013-01-23 03:54:00
11:54 PM,1.9,-2.9,80,30.23,10.0,WSW,8.1,-,N/A,,Clear,250,2013-01-23 04:54:00